Вернуться в каталог

HULIANWANG DIGUI-47

АктивенСвязьLEO
NORAD 65050·PAYLOAD·🇨🇳 China

Запущен Jul 30, 2025 с Wenchang Space Launch Site

Loading…

Ближайшие Пролёты (ближайшие 24 часа)

TLE

СвежийSource: Space-Track

Эпоха: Sep 14, 2026, 20:55 UTC

1 65050U 25162H   26257.87184164 -.00000076  00000-0  10418-3 0  9994
2 65050  50.0034 303.8467 0000659 264.5743  95.5054 13.29330028 55292

Отслеживайте HULIANWANG DIGUI-47 в реальном времени с AllMySat

Download on the App Store